CAPE
nan nan nan nan nan nan nan nan nan nan nan nan nan nan nan nan nan nan nan nan nan nan nan nan nan nan nan 2 1 1 1 2 3 3 4 3 4 4 4 4 4 3 3 3 3 3 1 0 0 nan nan nan nan nan nan nan nan nan nan 0 0 0 0 1 1 2 2 2 1 1 0 3 3 3 1 3 4 4 11 11 11 13 13 12 12 11
nan nan nan nan nan nan nan nan nan nan nan nan nan nan nan nan nan nan nan nan nan nan nan nan nan nan nan nan 0 0 0 1 2 2 3 3 3 3 6 6 6 6 5 4 4 3 1 0 0 nan nan nan nan nan nan nan nan nan nan nan nan nan nan nan nan nan nan nan nan nan nan nan nan nan nan 1 5 5 10 12 12 10 12 14 14 14
nan nan nan nan nan nan nan nan nan nan nan nan nan nan nan nan nan nan nan nan nan nan nan nan nan nan nan nan 0 0 1 1 2 2 2 2 3 3 5 6 6 7 5 5 5 3 2 1 1 nan nan nan nan nan nan nan nan nan nan nan nan nan nan nan nan nan nan nan nan nan nan nan nan nan nan nan 3 3 10 10 10 10 12 15 15 17
nan nan nan nan nan nan nan nan nan nan nan nan nan nan nan nan nan nan nan nan nan nan nan nan nan nan nan nan nan nan 3 2 2 2 1 2 3 3 6 7 7 6 6 4 4 3 1 0 0 nan nan nan nan nan nan nan nan nan nan nan nan nan nan nan nan nan nan nan nan nan nan nan nan nan nan nan 0 0 5 9 9 9 12 14 14 18
nan nan nan nan nan nan nan nan nan nan nan nan nan nan nan nan nan nan nan nan nan nan nan nan nan nan nan nan nan nan 3 7 5 5 3 4 4 4 6 6 6 6 6 5 5 3 1 nan nan nan nan nan nan nan nan nan nan nan nan nan nan nan nan nan nan nan nan nan nan nan nan nan nan nan nan nan nan nan 1 5 5 9 10 13 13 16
nan nan nan nan nan nan nan nan nan nan nan nan nan nan nan nan nan nan nan nan nan nan nan nan nan nan nan nan nan nan 2 9 7 7 6 6 7 7 7 6 6 8 7 5 5 2 0 nan nan nan nan nan nan nan nan nan nan nan nan nan nan nan nan nan nan nan nan nan nan nan nan nan nan nan nan nan nan nan nan 2 2 6 9 12 12 14
nan nan nan nan nan nan nan nan nan nan nan nan nan nan nan nan nan nan nan nan nan nan nan nan nan nan nan nan nan nan nan 0 5 5 4 6 7 7 7 7 7 7 6 3 3 0 nan nan nan nan nan nan nan nan nan nan nan nan nan nan nan nan nan nan nan nan nan nan nan nan nan nan nan nan nan nan nan nan nan 0 0 3 6 9 9 10
nan nan nan nan nan 0 nan nan nan nan nan nan nan nan nan nan nan nan nan nan nan nan nan nan nan nan nan nan nan nan nan nan nan nan nan nan nan nan 0 0 0 0 nan nan nan nan nan nan nan nan nan nan nan nan nan nan nan nan nan nan nan nan nan nan nan nan nan nan nan nan nan nan nan nan nan nan nan nan nan nan nan nan 1 4 4 7
nan nan nan nan nan nan nan 0 nan nan nan nan nan nan nan nan nan nan nan nan nan nan nan nan nan nan nan nan nan nan nan nan nan nan nan nan nan nan nan nan nan nan nan nan nan nan nan nan nan nan nan nan nan nan nan nan nan nan nan nan nan nan nan nan nan nan nan nan nan nan nan nan nan nan nan nan nan nan nan nan nan nan nan 1 1 3
nan nan nan nan nan nan nan 0 nan nan nan nan nan nan nan nan nan nan nan nan nan nan nan nan nan nan nan nan nan nan nan nan nan nan nan nan nan nan nan nan nan nan nan nan nan nan nan nan nan nan nan nan nan nan nan nan nan nan nan nan nan nan nan nan nan nan nan nan nan nan nan nan nan nan nan nan nan nan nan nan nan nan nan nan nan 0
nan nan nan nan nan nan nan nan nan nan nan nan nan nan nan nan nan nan nan nan nan nan nan nan nan nan nan nan nan nan nan nan nan nan nan nan nan nan nan nan nan nan nan nan nan nan nan nan nan nan nan nan nan nan nan nan nan nan nan nan nan nan nan nan nan nan nan nan nan nan nan 0 nan nan nan nan nan nan nan nan nan nan nan nan nan nan
nan nan nan nan nan nan nan nan nan nan nan nan nan nan nan nan nan nan nan nan nan nan nan nan nan nan nan nan nan nan nan nan nan nan nan nan nan nan nan nan nan nan nan nan nan nan nan nan nan nan nan nan nan nan nan nan nan nan nan nan nan nan nan nan nan nan nan nan nan nan nan 0 0 0 0 nan nan nan nan nan nan nan nan nan nan nan
nan nan nan nan nan nan nan nan nan nan nan nan nan nan nan nan nan nan nan nan nan nan nan nan nan nan nan nan nan nan nan nan nan nan nan nan nan nan nan nan nan nan nan nan nan nan nan nan nan nan nan nan nan nan nan nan nan nan nan nan nan nan nan nan nan nan nan nan nan nan 0 0 0 0 0 0 nan nan nan nan nan nan nan nan nan nan
nan nan nan nan nan nan nan nan nan nan nan nan nan nan nan nan nan nan nan nan nan nan nan nan nan nan nan nan nan nan nan nan nan nan nan nan nan nan nan nan nan nan nan nan nan nan 0 nan nan nan nan nan nan nan nan nan nan nan nan nan nan nan nan nan nan nan nan nan 0 0 0 nan 0 0 0 nan nan nan nan nan nan nan nan nan nan nan
nan nan nan nan nan nan nan nan nan nan nan nan nan nan nan nan nan nan nan nan nan nan nan nan nan nan nan nan nan nan nan nan nan nan nan nan nan nan nan nan nan nan nan nan nan nan nan nan nan nan nan nan nan nan nan nan nan nan nan nan nan nan nan nan nan nan nan 0 0 0 0 nan 0 0 0 nan nan nan nan nan nan nan nan nan nan nan
nan nan nan nan nan nan nan nan nan nan nan nan nan nan nan nan nan nan nan nan nan nan nan nan nan nan nan nan nan nan nan nan nan nan nan nan nan nan nan nan nan nan nan nan nan nan nan nan nan nan nan nan nan nan nan nan nan nan nan nan nan nan 0 0 0 0 0 nan 0 0 0 0 0 0 0 0 nan nan nan nan nan nan nan nan nan nan
nan nan nan nan nan nan nan nan nan nan nan nan nan nan nan nan nan nan nan nan nan nan nan nan nan nan nan nan nan nan nan nan nan nan nan nan nan nan nan nan nan nan nan nan nan nan nan nan nan nan nan nan nan nan nan nan nan nan nan nan nan 0 0 0 0 0 nan nan nan nan 0 0 0 0 0 nan nan nan nan nan nan nan nan nan nan nan
nan nan nan nan nan nan nan nan nan nan nan nan nan nan nan nan nan nan nan nan nan nan nan nan nan nan nan nan nan nan nan nan nan nan nan nan nan nan nan nan nan nan nan nan nan nan nan nan nan nan nan nan nan nan nan nan nan nan nan nan nan 0 1 1 1 0 nan nan nan nan nan 0 nan nan nan nan nan nan nan nan nan nan nan nan nan nan
nan nan nan nan nan nan nan nan nan nan nan nan nan nan nan nan nan nan nan nan nan nan nan nan nan nan nan nan nan nan nan nan nan nan nan nan nan nan nan nan nan nan nan nan nan nan nan nan nan nan nan nan nan nan nan nan nan nan nan nan nan 0 0 0 0 nan nan nan 0 0 0 0 0 0 nan 0 0 0 0 0 0 0 1 1 1 0
nan nan nan nan nan nan nan nan nan nan nan nan nan nan nan nan nan nan nan nan nan nan nan nan nan nan nan nan nan nan nan nan nan nan nan nan nan nan nan nan nan nan nan nan nan nan nan nan nan nan nan nan nan nan nan nan nan nan nan nan nan 0 0 nan nan nan nan nan 1 1 1 0 0 0 nan 0 0 0 1 1 1 3 3 4 4 3
nan nan nan nan nan nan nan nan nan nan nan nan nan nan nan nan nan nan nan nan nan nan nan nan nan nan nan nan nan nan nan nan nan nan nan nan nan nan nan nan nan nan nan nan nan nan nan nan nan nan nan nan nan nan nan nan nan nan nan nan nan 0 0 nan nan nan nan nan 1 1 1 0 0 0 nan nan 0 0 1 3 3 4 7 10 10 9
nan nan nan nan nan nan nan nan nan nan nan nan nan nan nan nan nan nan nan nan nan nan nan nan nan nan nan nan nan nan nan nan nan nan nan nan nan nan nan nan nan nan nan nan nan nan nan nan nan nan nan nan nan nan nan nan nan nan nan nan nan 0 nan nan nan nan nan nan 1 1 1 0 0 0 0 0 0 0 1 3 3 4 8 12 12 16
nan nan nan nan nan nan nan nan nan nan nan nan nan nan nan nan nan nan nan nan nan nan nan nan nan nan nan nan nan nan nan nan nan nan nan nan nan nan nan nan nan nan nan nan nan nan nan nan nan nan nan nan nan nan nan nan nan nan nan 0 0 0 nan nan nan nan 0 1 1 1 1 1 0 0 1 1 1 1 1 2 2 3 4 7 7 14
nan nan nan nan nan nan nan nan nan nan nan nan nan nan nan nan nan nan nan nan nan nan nan nan nan nan nan nan nan nan nan nan nan nan nan nan nan nan nan nan nan nan nan nan nan nan nan nan nan nan nan nan nan nan nan nan nan nan 0 0 0 0 nan 0 0 1 1 1 1 1 1 1 1 1 2 2 2 2 2 2 2 2 2 3 3 5
nan nan nan nan nan nan nan nan nan nan nan nan nan nan nan nan nan nan nan nan nan nan nan nan nan nan nan nan nan nan nan nan nan nan nan nan nan nan nan nan nan nan nan nan nan nan nan nan nan nan nan nan nan nan nan nan nan nan 1 0 0 0 0 1 1 1 1 1 1 1 1 2 2 2 3 3 2 2 2 2 2 2 2 2 2 3
nan nan nan nan nan nan nan nan nan nan nan nan nan nan nan nan nan nan nan nan nan nan nan nan nan nan nan nan nan nan nan nan nan nan nan nan nan nan nan nan nan nan nan nan nan nan nan nan nan nan nan nan nan nan nan nan nan 0 1 0 0 0 0 nan nan nan 0 0 0 0 1 1 2 2 2 2 2 2 2 2 2 2 2 2 2 3
nan nan nan nan nan nan nan nan nan nan nan nan nan nan nan nan nan nan nan nan nan nan nan nan nan nan nan nan nan nan nan nan nan nan nan nan nan nan nan nan nan nan nan nan nan nan nan nan nan nan nan nan nan nan nan nan nan 1 1 0 0 nan nan nan nan nan nan nan nan nan 0 0 1 1 1 1 1 1 1 1 1 2 2 2 2 3
nan nan nan nan nan nan nan nan nan nan nan nan nan nan nan nan nan nan nan nan nan nan nan nan nan nan nan nan nan nan nan nan nan nan nan nan nan nan nan nan nan nan nan nan nan nan nan nan nan nan nan nan nan nan nan nan nan nan 1 0 0 nan nan nan nan nan nan nan nan nan nan 0 1 1 1 1 1 1 1 1 1 2 2 2 2 0
nan nan nan nan nan nan nan nan nan nan nan nan nan nan nan nan nan nan nan nan nan nan nan nan nan nan nan nan nan nan nan nan nan nan nan nan nan nan nan nan nan nan nan nan nan nan nan nan nan nan nan nan nan nan nan nan nan nan nan nan nan nan nan nan nan nan nan nan nan nan 0 0 1 1 1 1 1 1 0 0 0 1 nan nan nan nan
nan nan nan nan nan 2 0 nan nan nan nan nan nan nan nan nan nan nan nan nan nan nan nan nan nan nan nan nan nan nan nan nan nan nan nan nan nan nan nan nan nan nan nan nan nan nan nan nan nan nan nan nan nan nan nan nan nan nan nan nan nan nan nan nan nan nan nan nan nan nan nan nan 0 0 1 1 0 0 nan nan nan nan nan nan nan nan
nan nan nan nan nan nan nan nan nan nan 0 nan nan nan nan nan nan nan nan nan nan nan nan nan nan nan nan nan nan nan nan nan nan nan nan nan nan nan nan nan nan nan nan nan nan nan nan nan nan nan nan nan nan nan nan nan nan nan nan nan nan nan nan nan nan nan nan nan nan nan nan nan nan nan nan nan nan nan nan nan nan nan nan nan nan nan
nan nan nan nan nan nan nan nan nan nan nan nan nan nan nan nan nan nan nan nan nan nan nan nan nan nan nan nan nan nan nan nan nan nan nan nan nan nan nan nan nan nan nan nan nan nan nan nan nan nan nan nan nan nan nan nan nan nan nan nan nan nan nan nan nan nan nan nan nan nan nan nan nan nan nan nan nan nan nan nan nan nan nan nan nan nan
nan nan nan nan nan nan nan nan nan nan nan nan nan nan nan nan nan nan nan nan nan nan nan nan nan nan nan nan nan nan nan nan nan nan nan nan nan nan nan nan nan nan nan nan nan nan nan nan nan nan nan nan nan nan nan nan nan nan nan nan nan nan nan nan nan nan nan nan nan nan nan nan nan nan nan nan nan nan nan nan nan 0 nan nan nan nan
nan nan nan nan nan nan nan nan nan nan nan nan nan nan nan nan nan nan nan nan nan nan nan nan nan nan nan nan nan nan nan nan nan nan nan nan nan nan nan nan nan nan nan nan nan nan nan nan nan nan nan nan nan nan nan nan nan nan nan nan nan nan nan nan nan nan nan nan nan nan nan nan nan nan nan nan nan nan nan 0 0 1 3 0 0 nan
nan nan nan nan nan nan nan nan nan nan nan nan nan nan nan nan nan nan nan nan nan nan nan nan nan nan nan nan nan nan nan nan nan nan 2 nan nan nan nan nan nan nan nan nan nan nan nan nan nan nan nan nan nan nan nan nan nan nan nan nan nan nan nan nan nan nan nan nan nan nan nan nan nan nan nan nan nan nan 0 1 1 3 3 9 9 3
nan nan nan nan nan nan nan nan nan nan nan nan nan nan nan nan nan nan nan nan nan nan nan nan nan nan nan nan nan nan nan nan nan nan 2 nan nan nan nan nan nan nan nan nan nan nan nan nan nan nan nan nan nan nan nan nan nan nan nan nan nan nan nan nan nan nan nan nan nan nan nan nan nan nan nan nan nan nan nan nan nan 2 3 6 6 4
nan nan nan nan nan nan nan nan nan nan nan nan nan nan nan nan nan nan nan nan nan nan nan nan nan nan nan nan nan nan nan nan nan nan nan nan nan nan nan nan nan nan nan nan nan nan nan nan nan nan nan nan nan nan nan nan nan nan nan nan nan nan nan nan nan nan nan nan nan nan nan nan nan nan nan nan nan nan nan nan nan nan nan nan nan 0
nan nan nan nan nan nan nan nan nan nan nan nan nan nan nan nan nan nan nan nan nan nan nan nan nan nan nan nan nan nan nan nan nan nan nan nan nan nan nan nan nan nan nan nan nan nan nan nan nan nan nan nan nan nan nan nan nan nan nan nan nan nan nan nan nan nan nan nan nan nan nan nan nan nan nan nan nan nan nan nan nan nan nan nan nan nan
nan nan nan nan nan nan nan nan nan nan nan nan nan nan nan nan nan nan nan nan nan nan nan nan nan nan nan nan nan nan nan nan nan nan nan nan nan nan nan nan nan nan nan nan nan nan nan nan nan nan nan nan nan nan nan nan nan nan nan nan nan nan nan nan nan nan nan nan nan nan nan nan nan nan nan nan nan nan nan nan nan nan nan nan nan nan
nan nan nan nan nan nan nan nan nan nan nan nan nan nan nan nan nan nan nan nan nan nan nan nan nan nan nan nan nan nan nan nan nan nan nan nan nan nan nan nan nan nan nan nan nan nan nan nan nan nan nan nan nan nan nan nan nan nan nan nan nan nan nan nan nan nan nan nan nan nan nan nan nan nan nan nan nan nan nan nan nan nan nan nan nan nan
nan nan nan nan nan nan nan nan nan nan nan nan nan nan nan nan nan nan nan nan nan nan nan nan nan nan nan nan nan nan nan nan nan nan nan nan nan nan nan nan nan nan nan nan nan nan nan nan nan nan nan nan nan nan nan nan nan nan nan nan nan nan nan nan nan nan nan nan nan nan nan nan nan nan nan nan nan nan nan nan nan nan nan nan nan nan
nan nan nan nan nan nan nan nan nan nan nan nan nan nan nan nan nan nan nan nan nan nan nan nan nan nan nan nan nan nan nan nan nan nan nan nan nan nan nan nan nan nan nan nan nan nan nan nan nan nan nan nan nan nan nan nan nan nan nan nan nan nan nan nan nan nan nan nan nan nan nan nan nan nan nan nan nan nan nan nan nan nan nan nan nan nan
nan nan nan nan nan nan nan nan nan nan nan nan nan nan nan nan nan nan nan nan nan nan nan nan nan nan nan nan nan nan nan nan nan nan nan nan nan nan nan nan nan nan nan nan nan nan nan nan nan nan nan nan nan nan nan nan nan nan nan nan nan nan nan nan nan nan nan nan nan nan nan nan nan nan nan nan nan nan nan nan nan nan nan nan nan nan
nan nan nan nan nan nan nan nan nan nan nan nan nan nan nan nan nan nan nan nan nan nan nan nan nan nan nan nan nan nan nan nan nan nan nan nan nan nan nan nan nan nan nan nan nan nan nan nan nan nan nan nan nan nan nan nan nan nan nan nan nan nan nan nan nan nan nan nan nan nan nan nan nan nan nan nan nan nan nan nan nan nan nan nan nan nan
nan nan nan nan nan nan nan nan nan nan nan nan nan nan nan nan nan nan nan nan nan nan nan nan nan nan nan nan nan nan nan nan nan nan nan nan 0 0 nan nan nan nan nan nan nan nan nan nan nan nan nan nan nan nan nan nan nan nan nan nan nan nan nan nan nan nan nan nan nan nan nan nan nan nan nan nan nan nan nan nan nan nan nan nan nan nan
nan nan nan nan nan nan nan nan nan nan nan nan nan nan nan nan nan nan nan nan nan nan nan nan nan nan nan nan nan nan nan nan nan nan nan nan nan nan 0 nan nan nan nan nan nan nan nan nan nan nan nan nan nan nan nan nan nan nan nan nan nan nan nan nan nan nan nan nan nan nan nan nan nan nan nan nan nan nan nan nan nan nan nan nan nan nan
nan nan nan nan nan nan nan nan nan nan nan nan nan nan nan nan nan nan nan nan nan nan nan nan nan nan nan nan nan nan nan nan nan nan nan nan nan nan nan nan nan nan nan nan nan nan nan nan nan nan nan nan nan nan nan nan nan nan nan nan nan nan nan nan nan nan nan nan nan nan nan nan nan nan nan nan nan nan nan nan nan nan nan nan nan nan
nan nan nan nan nan nan nan nan nan nan nan nan nan nan nan nan nan nan nan nan nan nan nan nan nan nan nan nan nan nan nan nan nan nan nan nan nan nan nan nan nan nan 0 nan nan nan nan nan nan nan nan nan nan nan nan nan nan nan nan nan nan nan nan nan nan nan nan nan nan nan nan nan nan nan nan nan nan nan nan nan nan nan nan nan nan nan
nan nan nan nan nan nan nan nan nan nan nan nan nan nan nan nan nan nan nan nan nan nan nan nan nan nan nan nan nan nan nan nan nan nan nan nan nan nan nan nan nan nan nan nan nan nan nan nan nan nan nan nan nan nan nan nan nan nan nan nan nan nan nan nan nan nan nan nan nan nan nan nan nan nan nan nan nan nan nan nan nan nan nan nan nan nan
nan nan nan nan nan nan nan nan nan nan nan nan nan nan nan nan nan nan nan nan nan nan nan nan nan nan nan nan nan nan nan nan nan nan nan nan nan nan nan nan nan nan nan nan nan nan nan 1 1 1 1 nan nan nan nan nan nan nan nan nan nan nan nan nan nan nan nan nan nan nan nan nan nan nan nan nan nan nan nan nan nan nan nan nan nan nan
nan nan nan nan nan nan nan nan nan nan nan nan nan nan nan nan nan nan nan nan nan nan nan nan nan nan nan nan nan nan nan nan nan nan nan nan nan nan nan nan nan nan nan nan nan nan nan nan nan nan 2 5 nan nan nan nan nan nan nan nan nan nan nan nan nan nan nan nan nan nan nan nan nan nan nan nan nan nan nan nan nan nan nan nan nan nan
CIN
nan nan nan nan nan nan nan nan nan nan nan nan nan nan nan nan nan nan nan nan nan nan nan nan nan nan nan -0 -0 -0 -0 -0 -0 -0 -0 -0 -0 -0 -0 -0 -0 -0 -0 -0 -0 -0 -0 -0 -0 nan nan nan nan nan nan nan nan nan nan -0 -0 -0 -0 -0 -0 -0 -0 -0 -0 -0 -0 -0 -0 -0 -0 -0 -0 -0 -0 -0 -0 -0 -0 -0 -0 -0
nan nan nan nan nan nan nan nan nan nan nan nan nan nan nan nan nan nan nan nan nan nan nan nan nan nan nan nan -1 -1 -0 -0 -0 -0 -0 -0 -0 -0 -0 -0 -0 -0 -0 -0 -0 -0 -0 -0 -0 nan nan nan nan nan nan nan nan nan nan nan nan nan nan nan nan nan nan nan nan nan nan nan nan nan nan -0 -0 -0 -0 -0 -0 -0 -0 -0 -0 -0
nan nan nan nan nan nan nan nan nan nan nan nan nan nan nan nan nan nan nan nan nan nan nan nan nan nan nan nan -0 -0 -0 -0 -0 -0 -0 -0 -0 -0 -0 -0 -0 -0 -0 -0 -0 -0 -0 -0 -0 nan nan nan nan nan nan nan nan nan nan nan nan nan nan nan nan nan nan nan nan nan nan nan nan nan nan nan -0 -0 -0 -0 -0 -0 -0 -0 -0 -0
nan nan nan nan nan nan nan nan nan nan nan nan nan nan nan nan nan nan nan nan nan nan nan nan nan nan nan nan nan nan -0 -0 -0 -0 -0 -0 -0 -0 -0 -0 -0 -0 -0 -0 -0 -0 -0 -0 -0 nan nan nan nan nan nan nan nan nan nan nan nan nan nan nan nan nan nan nan nan nan nan nan nan nan nan nan -0 -0 -0 -0 -0 -0 -0 -0 -0 -0
nan nan nan nan nan nan nan nan nan nan nan nan nan nan nan nan nan nan nan nan nan nan nan nan nan nan nan nan nan nan -3 -0 -0 -0 -0 -0 -0 -0 -0 -0 -0 -0 -0 -0 -0 -0 -0 nan nan nan nan nan nan nan nan nan nan nan nan nan nan nan nan nan nan nan nan nan nan nan nan nan nan nan nan nan nan nan -0 -0 -0 -0 -0 -0 -0 -0
nan nan nan nan nan nan nan nan nan nan nan nan nan nan nan nan nan nan nan nan nan nan nan nan nan nan nan nan nan nan -16 -0 -0 -0 -0 -0 -0 -0 -0 -0 -0 -0 -0 -0 -0 -0 -0 nan nan nan nan nan nan nan nan nan nan nan nan nan nan nan nan nan nan nan nan nan nan nan nan nan nan nan nan nan nan nan nan -0 -0 -0 -0 -0 -0 -0
nan nan nan nan nan nan nan nan nan nan nan nan nan nan nan nan nan nan nan nan nan nan nan nan nan nan nan nan nan nan nan -13 -1 -1 -2 -1 -0 -0 -0 -0 -0 -0 -0 -0 -0 -0 nan nan nan nan nan nan nan nan nan nan nan nan nan nan nan nan nan nan nan nan nan nan nan nan nan nan nan nan nan nan nan nan nan -0 -0 -0 -0 -0 -0 -0
nan nan nan nan nan -0 nan nan nan nan nan nan nan nan nan nan nan nan nan nan nan nan nan nan nan nan nan nan nan nan nan nan nan nan nan nan nan nan -4 -0 -0 -0 nan nan nan nan nan nan nan nan nan nan nan nan nan nan nan nan nan nan nan nan nan nan nan nan nan nan nan nan nan nan nan nan nan nan nan nan nan nan nan nan -0 -0 -0 -0
nan nan nan nan nan nan nan -0 nan nan nan nan nan nan nan nan nan nan nan nan nan nan nan nan nan nan nan nan nan nan nan nan nan nan nan nan nan nan nan nan nan nan nan nan nan nan nan nan nan nan nan nan nan nan nan nan nan nan nan nan nan nan nan nan nan nan nan nan nan nan nan nan nan nan nan nan nan nan nan nan nan nan nan -0 -0 -0
nan nan nan nan nan nan nan -0 nan nan nan nan nan nan nan nan nan nan nan nan nan nan nan nan nan nan nan nan nan nan nan nan nan nan nan nan nan nan nan nan nan nan nan nan nan nan nan nan nan nan nan nan nan nan nan nan nan nan nan nan nan nan nan nan nan nan nan nan nan nan nan nan nan nan nan nan nan nan nan nan nan nan nan nan nan -0
nan nan nan nan nan nan nan nan nan nan nan nan nan nan nan nan nan nan nan nan nan nan nan nan nan nan nan nan nan nan nan nan nan nan nan nan nan nan nan nan nan nan nan nan nan nan nan nan nan nan nan nan nan nan nan nan nan nan nan nan nan nan nan nan nan nan nan nan nan nan nan -0 nan nan nan nan nan nan nan nan nan nan nan nan nan nan
nan nan nan nan nan nan nan nan nan nan nan nan nan nan nan nan nan nan nan nan nan nan nan nan nan nan nan nan nan nan nan nan nan nan nan nan nan nan nan nan nan nan nan nan nan nan nan nan nan nan nan nan nan nan nan nan nan nan nan nan nan nan nan nan nan nan nan nan nan nan nan -0 -0 -0 -0 nan nan nan nan nan nan nan nan nan nan nan
nan nan nan nan nan nan nan nan nan nan nan nan nan nan nan nan nan nan nan nan nan nan nan nan nan nan nan nan nan nan nan nan nan nan nan nan nan nan nan nan nan nan nan nan nan nan nan nan nan nan nan nan nan nan nan nan nan nan nan nan nan nan nan nan nan nan nan nan nan nan -0 -0 -0 -0 -0 -0 nan nan nan nan nan nan nan nan nan nan
nan nan nan nan nan nan nan nan nan nan nan nan nan nan nan nan nan nan nan nan nan nan nan nan nan nan nan nan nan nan nan nan nan nan nan nan nan nan nan nan nan nan nan nan nan nan -0 nan nan nan nan nan nan nan nan nan nan nan nan nan nan nan nan nan nan nan nan nan -0 -0 -0 nan -0 -0 -0 nan nan nan nan nan nan nan nan nan nan nan
nan nan nan nan nan nan nan nan nan nan nan nan nan nan nan nan nan nan nan nan nan nan nan nan nan nan nan nan nan nan nan nan nan nan nan nan nan nan nan nan nan nan nan nan nan nan nan nan nan nan nan nan nan nan nan nan nan nan nan nan nan nan nan nan nan nan nan -0 -0 -0 -0 nan -0 -0 -0 nan nan nan nan nan nan nan nan nan nan nan
nan nan nan nan nan nan nan nan nan nan nan nan nan nan nan nan nan nan nan nan nan nan nan nan nan nan nan nan nan nan nan nan nan nan nan nan nan nan nan nan nan nan nan nan nan nan nan nan nan nan nan nan nan nan nan nan nan nan nan nan nan nan -0 -0 -0 -0 -0 nan -0 -0 -0 -0 -0 -0 -0 -0 nan nan nan nan nan nan nan nan nan nan
nan nan nan nan nan nan nan nan nan nan nan nan nan nan nan nan nan nan nan nan nan nan nan nan nan nan nan nan nan nan nan nan nan nan nan nan nan nan nan nan nan nan nan nan nan nan nan nan nan nan nan nan nan nan nan nan nan nan nan nan nan -0 -0 -0 -0 -0 nan nan nan nan -0 -0 -0 -0 -0 nan nan nan nan nan nan nan nan nan nan nan
nan nan nan nan nan nan nan nan nan nan nan nan nan nan nan nan nan nan nan nan nan nan nan nan nan nan nan nan nan nan nan nan nan nan nan nan nan nan nan nan nan nan nan nan nan nan nan nan nan nan nan nan nan nan nan nan nan nan nan nan nan -0 -0 -0 -0 -0 nan nan nan nan nan -0 nan nan nan nan nan nan nan nan nan nan nan nan nan nan
nan nan nan nan nan nan nan nan nan nan nan nan nan nan nan nan nan nan nan nan nan nan nan nan nan nan nan nan nan nan nan nan nan nan nan nan nan nan nan nan nan nan nan nan nan nan nan nan nan nan nan nan nan nan nan nan nan nan nan nan nan -0 -0 -0 -0 nan nan nan -0 -0 -0 -0 -0 -0 nan -0 -0 -0 -0 -0 -0 -0 -0 -0 -0 -0
nan nan nan nan nan nan nan nan nan nan nan nan nan nan nan nan nan nan nan nan nan nan nan nan nan nan nan nan nan nan nan nan nan nan nan nan nan nan nan nan nan nan nan nan nan nan nan nan nan nan nan nan nan nan nan nan nan nan nan nan nan -0 -0 nan nan nan nan nan -0 -0 -0 -0 -0 -0 nan -0 -0 -0 -0 -0 -0 -0 -0 -0 -0 -0
nan nan nan nan nan nan nan nan nan nan nan nan nan nan nan nan nan nan nan nan nan nan nan nan nan nan nan nan nan nan nan nan nan nan nan nan nan nan nan nan nan nan nan nan nan nan nan nan nan nan nan nan nan nan nan nan nan nan nan nan nan -0 -0 nan nan nan nan nan -0 -0 -0 -0 -0 -0 nan nan -0 -0 -0 -0 -0 -0 -0 -0 -0 -0
nan nan nan nan nan nan nan nan nan nan nan nan nan nan nan nan nan nan nan nan nan nan nan nan nan nan nan nan nan nan nan nan nan nan nan nan nan nan nan nan nan nan nan nan nan nan nan nan nan nan nan nan nan nan nan nan nan nan nan nan nan -0 nan nan nan nan nan nan -0 -0 -0 -0 -0 -0 -0 -0 -0 -0 -0 -0 -0 -0 -0 -0 -0 -0
nan nan nan nan nan nan nan nan nan nan nan nan nan nan nan nan nan nan nan nan nan nan nan nan nan nan nan nan nan nan nan nan nan nan nan nan nan nan nan nan nan nan nan nan nan nan nan nan nan nan nan nan nan nan nan nan nan nan nan -0 -0 -0 nan nan nan nan -0 -0 -0 -0 -0 -0 -0 -0 -0 -0 -0 -0 -0 -0 -0 -0 -0 -0 -0 -0
nan nan nan nan nan nan nan nan nan nan nan nan nan nan nan nan nan nan nan nan nan nan nan nan nan nan nan nan nan nan nan nan nan nan nan nan nan nan nan nan nan nan nan nan nan nan nan nan nan nan nan nan nan nan nan nan nan nan -0 -0 -0 -0 nan -0 -0 -0 -0 -0 -0 -0 -0 -0 -0 -0 -0 -0 -0 -0 -0 -0 -0 -0 -0 -0 -0 -0
nan nan nan nan nan nan nan nan nan nan nan nan nan nan nan nan nan nan nan nan nan nan nan nan nan nan nan nan nan nan nan nan nan nan nan nan nan nan nan nan nan nan nan nan nan nan nan nan nan nan nan nan nan nan nan nan nan nan -0 -0 -0 -0 -0 -0 -0 -0 -0 -0 -0 -0 -0 -0 -0 -0 -0 -0 -0 -0 -0 -0 -0 -0 -0 -0 -0 -0
nan nan nan nan nan nan nan nan nan nan nan nan nan nan nan nan nan nan nan nan nan nan nan nan nan nan nan nan nan nan nan nan nan nan nan nan nan nan nan nan nan nan nan nan nan nan nan nan nan nan nan nan nan nan nan nan nan -0 -0 -0 -0 -0 -0 nan nan nan -0 -0 -0 -0 -0 -0 -0 -0 -0 -0 -0 -0 -0 -0 -0 -0 -0 -0 -0 -0
nan nan nan nan nan nan nan nan nan nan nan nan nan nan nan nan nan nan nan nan nan nan nan nan nan nan nan nan nan nan nan nan nan nan nan nan nan nan nan nan nan nan nan nan nan nan nan nan nan nan nan nan nan nan nan nan nan -5 -0 -0 -0 nan nan nan nan nan nan nan nan nan -0 -0 -0 -0 -0 -0 -0 -0 -0 -0 -0 -0 -0 -0 -0 -0
nan nan nan nan nan nan nan nan nan nan nan nan nan nan nan nan nan nan nan nan nan nan nan nan nan nan nan nan nan nan nan nan nan nan nan nan nan nan nan nan nan nan nan nan nan nan nan nan nan nan nan nan nan nan nan nan nan nan -1 -0 -0 nan nan nan nan nan nan nan nan nan nan -0 -0 -0 -0 -0 -0 -0 -0 -0 -0 -0 -0 -0 -0 -38
nan nan nan nan nan nan nan nan nan nan nan nan nan nan nan nan nan nan nan nan nan nan nan nan nan nan nan nan nan nan nan nan nan nan nan nan nan nan nan nan nan nan nan nan nan nan nan nan nan nan nan nan nan nan nan nan nan nan nan nan nan nan nan nan nan nan nan nan nan nan -0 -0 -0 -0 -0 -0 -0 -0 -0 -0 -0 -0 nan nan nan nan
nan nan nan nan nan -0 -0 nan nan nan nan nan nan nan nan nan nan nan nan nan nan nan nan nan nan nan nan nan nan nan nan nan nan nan nan nan nan nan nan nan nan nan nan nan nan nan nan nan nan nan nan nan nan nan nan nan nan nan nan nan nan nan nan nan nan nan nan nan nan nan nan nan -0 -0 -0 -0 -0 -0 nan nan nan nan nan nan nan nan
nan nan nan nan nan nan nan nan nan nan -0 nan nan nan nan nan nan nan nan nan nan nan nan nan nan nan nan nan nan nan nan nan nan nan nan nan nan nan nan nan nan nan nan nan nan nan nan nan nan nan nan nan nan nan nan nan nan nan nan nan nan nan nan nan nan nan nan nan nan nan nan nan nan nan nan nan nan nan nan nan nan nan nan nan nan nan
nan nan nan nan nan nan nan nan nan nan nan nan nan nan nan nan nan nan nan nan nan nan nan nan nan nan nan nan nan nan nan nan nan nan nan nan nan nan nan nan nan nan nan nan nan nan nan nan nan nan nan nan nan nan nan nan nan nan nan nan nan nan nan nan nan nan nan nan nan nan nan nan nan nan nan nan nan nan nan nan nan nan nan nan nan nan
nan nan nan nan nan nan nan nan nan nan nan nan nan nan nan nan nan nan nan nan nan nan nan nan nan nan nan nan nan nan nan nan nan nan nan nan nan nan nan nan nan nan nan nan nan nan nan nan nan nan nan nan nan nan nan nan nan nan nan nan nan nan nan nan nan nan nan nan nan nan nan nan nan nan nan nan nan nan nan nan nan -0 nan nan nan nan
nan nan nan nan nan nan nan nan nan nan nan nan nan nan nan nan nan nan nan nan nan nan nan nan nan nan nan nan nan nan nan nan nan nan nan nan nan nan nan nan nan nan nan nan nan nan nan nan nan nan nan nan nan nan nan nan nan nan nan nan nan nan nan nan nan nan nan nan nan nan nan nan nan nan nan nan nan nan nan -0 -0 -0 -0 -26 -26 nan
nan nan nan nan nan nan nan nan nan nan nan nan nan nan nan nan nan nan nan nan nan nan nan nan nan nan nan nan nan nan nan nan nan nan -0 nan nan nan nan nan nan nan nan nan nan nan nan nan nan nan nan nan nan nan nan nan nan nan nan nan nan nan nan nan nan nan nan nan nan nan nan nan nan nan nan nan nan nan -0 -0 -0 -0 -0 -0 -0 -11
nan nan nan nan nan nan nan nan nan nan nan nan nan nan nan nan nan nan nan nan nan nan nan nan nan nan nan nan nan nan nan nan nan nan -0 nan nan nan nan nan nan nan nan nan nan nan nan nan nan nan nan nan nan nan nan nan nan nan nan nan nan nan nan nan nan nan nan nan nan nan nan nan nan nan nan nan nan nan nan nan nan -0 -0 -0 -0 -7
nan nan nan nan nan nan nan nan nan nan nan nan nan nan nan nan nan nan nan nan nan nan nan nan nan nan nan nan nan nan nan nan nan nan nan nan nan nan nan nan nan nan nan nan nan nan nan nan nan nan nan nan nan nan nan nan nan nan nan nan nan nan nan nan nan nan nan nan nan nan nan nan nan nan nan nan nan nan nan nan nan nan nan nan nan -3
nan nan nan nan nan nan nan nan nan nan nan nan nan nan nan nan nan nan nan nan nan nan nan nan nan nan nan nan nan nan nan nan nan nan nan nan nan nan nan nan nan nan nan nan nan nan nan nan nan nan nan nan nan nan nan nan nan nan nan nan nan nan nan nan nan nan nan nan nan nan nan nan nan nan nan nan nan nan nan nan nan nan nan nan nan nan
nan nan nan nan nan nan nan nan nan nan nan nan nan nan nan nan nan nan nan nan nan nan nan nan nan nan nan nan nan nan nan nan nan nan nan nan nan nan nan nan nan nan nan nan nan nan nan nan nan nan nan nan nan nan nan nan nan nan nan nan nan nan nan nan nan nan nan nan nan nan nan nan nan nan nan nan nan nan nan nan nan nan nan nan nan nan
nan nan nan nan nan nan nan nan nan nan nan nan nan nan nan nan nan nan nan nan nan nan nan nan nan nan nan nan nan nan nan nan nan nan nan nan nan nan nan nan nan nan nan nan nan nan nan nan nan nan nan nan nan nan nan nan nan nan nan nan nan nan nan nan nan nan nan nan nan nan nan nan nan nan nan nan nan nan nan nan nan nan nan nan nan nan
nan nan nan nan nan nan nan nan nan nan nan nan nan nan nan nan nan nan nan nan nan nan nan nan nan nan nan nan nan nan nan nan nan nan nan nan nan nan nan nan nan nan nan nan nan nan nan nan nan nan nan nan nan nan nan nan nan nan nan nan nan nan nan nan nan nan nan nan nan nan nan nan nan nan nan nan nan nan nan nan nan nan nan nan nan nan
nan nan nan nan nan nan nan nan nan nan nan nan nan nan nan nan nan nan nan nan nan nan nan nan nan nan nan nan nan nan nan nan nan nan nan nan nan nan nan nan nan nan nan nan nan nan nan nan nan nan nan nan nan nan nan nan nan nan nan nan nan nan nan nan nan nan nan nan nan nan nan nan nan nan nan nan nan nan nan nan nan nan nan nan nan nan
nan nan nan nan nan nan nan nan nan nan nan nan nan nan nan nan nan nan nan nan nan nan nan nan nan nan nan nan nan nan nan nan nan nan nan nan nan nan nan nan nan nan nan nan nan nan nan nan nan nan nan nan nan nan nan nan nan nan nan nan nan nan nan nan nan nan nan nan nan nan nan nan nan nan nan nan nan nan nan nan nan nan nan nan nan nan
nan nan nan nan nan nan nan nan nan nan nan nan nan nan nan nan nan nan nan nan nan nan nan nan nan nan nan nan nan nan nan nan nan nan nan nan nan nan nan nan nan nan nan nan nan nan nan nan nan nan nan nan nan nan nan nan nan nan nan nan nan nan nan nan nan nan nan nan nan nan nan nan nan nan nan nan nan nan nan nan nan nan nan nan nan nan
nan nan nan nan nan nan nan nan nan nan nan nan nan nan nan nan nan nan nan nan nan nan nan nan nan nan nan nan nan nan nan nan nan nan nan nan -0 -0 nan nan nan nan nan nan nan nan nan nan nan nan nan nan nan nan nan nan nan nan nan nan nan nan nan nan nan nan nan nan nan nan nan nan nan nan nan nan nan nan nan nan nan nan nan nan nan nan
nan nan nan nan nan nan nan nan nan nan nan nan nan nan nan nan nan nan nan nan nan nan nan nan nan nan nan nan nan nan nan nan nan nan nan nan nan nan -0 nan nan nan nan nan nan nan nan nan nan nan nan nan nan nan nan nan nan nan nan nan nan nan nan nan nan nan nan nan nan nan nan nan nan nan nan nan nan nan nan nan nan nan nan nan nan nan
nan nan nan nan nan nan nan nan nan nan nan nan nan nan nan nan nan nan nan nan nan nan nan nan nan nan nan nan nan nan nan nan nan nan nan nan nan nan nan nan nan nan nan nan nan nan nan nan nan nan nan nan nan nan nan nan nan nan nan nan nan nan nan nan nan nan nan nan nan nan nan nan nan nan nan nan nan nan nan nan nan nan nan nan nan nan
nan nan nan nan nan nan nan nan nan nan nan nan nan nan nan nan nan nan nan nan nan nan nan nan nan nan nan nan nan nan nan nan nan nan nan nan nan nan nan nan nan nan -0 nan nan nan nan nan nan nan nan nan nan nan nan nan nan nan nan nan nan nan nan nan nan nan nan nan nan nan nan nan nan nan nan nan nan nan nan nan nan nan nan nan nan nan
nan nan nan nan nan nan nan nan nan nan nan nan nan nan nan nan nan nan nan nan nan nan nan nan nan nan nan nan nan nan nan nan nan nan nan nan nan nan nan nan nan nan nan nan nan nan nan nan nan nan nan nan nan nan nan nan nan nan nan nan nan nan nan nan nan nan nan nan nan nan nan nan nan nan nan nan nan nan nan nan nan nan nan nan nan nan
nan nan nan nan nan nan nan nan nan nan nan nan nan nan nan nan nan nan nan nan nan nan nan nan nan nan nan nan nan nan nan nan nan nan nan nan nan nan nan nan nan nan nan nan nan nan nan -0 -0 -0 -0 nan nan nan nan nan nan nan nan nan nan nan nan nan nan nan nan nan nan nan nan nan nan nan nan nan nan nan nan nan nan nan nan nan nan nan
nan nan nan nan nan nan nan nan nan nan nan nan nan nan nan nan nan nan nan nan nan nan nan nan nan nan nan nan nan nan nan nan nan nan nan nan nan nan nan nan nan nan nan nan nan nan nan nan nan nan -0 -0 nan nan nan nan nan nan nan nan nan nan nan nan nan nan nan nan nan nan nan nan nan nan nan nan nan nan nan nan nan nan nan nan nan nan
Wind_Speed
2 2 3 5 5 4 3 4 5 5 4 3 3 3 3 4 4 4 5 4 4 4 3 3 3 3 4 5 6 6 6 6 6 6 7 7 8 8 8 7 7 7 7 8 8 8 9 9 9 9 9 9 9 9 9 9 9 9 9 9 9 9 10 9 9 9 9 9 9 9 8 8 7 7 7 7 7 6 6 6 6 6 5 6 6 7
2 2 3 4 4 4 3 3 4 4 5 4 3 3 3 3 3 3 3 4 4 3 3 3 3 3 4 4 4 5 6 6 6 6 6 7 7 7 7 7 7 7 7 7 8 8 8 8 8 8 8 8 8 8 8 8 8 8 8 8 9 9 9 9 9 9 9 9 8 8 8 7 7 6 6 6 6 6 6 6 6 6 6 5 6 6
3 3 3 3 3 3 3 3 3 3 4 4 4 3 4 4 3 3 2 3 3 3 3 2 2 3 4 4 3 4 5 6 6 6 6 7 7 7 7 7 7 7 7 7 7 7 7 7 7 7 7 7 7 7 7 7 7 7 7 7 8 8 8 8 8 8 8 8 8 7 7 7 6 6 6 6 6 6 6 6 6 6 6 6 6 6
3 3 3 3 2 2 2 2 3 3 3 3 3 4 4 4 3 3 2 2 2 3 3 3 3 3 3 3 2 2 5 6 7 6 6 7 7 7 7 7 7 7 7 7 7 7 7 6 6 6 6 6 6 6 6 6 6 6 6 6 7 7 7 7 7 7 7 7 7 7 7 6 6 6 6 6 6 6 6 6 6 6 6 6 6 6
3 3 3 3 2 2 2 2 3 3 4 4 3 3 4 3 3 2 2 2 3 3 3 3 3 3 3 3 3 2 5 7 7 7 7 7 7 7 7 7 7 7 7 7 6 6 6 5 5 5 5 5 5 5 5 5 5 5 5 5 6 6 6 6 7 7 7 7 6 6 6 6 6 6 6 6 6 6 6 6 6 6 6 5 6 6
2 2 3 2 2 1 1 2 3 3 3 3 3 3 3 3 2 2 2 2 3 2 2 2 3 3 3 3 4 5 6 7 7 7 6 7 7 7 7 7 7 7 6 6 6 5 5 4 4 4 4 4 4 4 4 4 4 5 5 5 5 5 6 6 6 6 6 6 6 6 6 6 5 5 5 5 6 6 6 6 6 5 5 5 5 5
2 2 2 2 2 1 1 1 2 3 2 2 3 3 3 2 2 2 2 2 2 2 2 2 2 3 3 4 5 6 6 7 7 7 7 6 6 7 6 6 6 6 6 5 5 4 4 3 3 3 3 3 4 4 4 4 5 5 5 5 5 5 5 5 5 5 5 5 5 5 5 5 5 5 5 5 5 5 5 5 5 5 5 5 5 5
3 2 2 2 2 1 1 1 1 1 2 2 2 2 2 2 2 2 2 2 2 2 1 2 2 3 3 4 5 5 5 5 6 6 6 7 7 6 6 6 6 5 5 4 4 3 3 2 2 2 3 3 4 4 5 5 5 5 5 4 4 4 4 4 4 5 5 5 5 5 4 4 4 4 4 4 4 5 5 5 5 5 5 5 5 5
4 3 2 2 2 2 1 1 1 1 1 2 2 3 2 2 2 2 2 2 2 2 1 1 2 2 3 3 4 4 4 4 4 4 5 5 5 6 7 6 6 5 4 3 3 2 2 2 2 2 3 3 4 4 4 4 4 4 4 3 3 3 3 3 4 4 4 4 4 4 4 4 4 4 3 4 4 4 4 4 5 5 5 5 5 5
4 4 3 2 2 2 2 1 1 1 1 1 2 2 2 2 2 2 2 1 2 2 1 1 2 2 2 3 3 4 4 4 5 6 7 6 7 7 7 7 6 5 5 4 3 2 2 2 2 2 3 3 3 4 4 4 3 3 2 2 2 2 3 3 3 3 4 4 4 4 4 3 3 3 3 3 3 3 3 4 4 5 5 5 5 5
3 3 3 2 1 1 1 1 1 1 1 2 2 2 2 2 2 3 3 2 1 1 1 2 1 1 1 2 3 3 3 3 4 5 7 7 8 8 8 7 7 7 6 5 5 4 3 3 2 3 3 3 3 3 3 3 2 2 1 1 1 2 2 2 3 3 3 3 3 3 3 3 3 3 3 2 2 2 2 3 3 4 4 5 5 5
3 3 2 2 2 1 1 1 1 1 1 2 2 2 1 1 1 2 4 3 2 1 1 1 1 1 1 1 2 2 3 2 2 3 4 5 6 6 5 5 6 6 6 6 6 5 5 4 4 3 3 3 3 3 2 2 1 1 1 1 1 1 1 2 2 2 3 3 3 3 3 3 3 3 2 2 2 2 2 2 2 3 3 4 4 5
2 2 2 2 2 2 2 2 2 1 2 2 3 3 3 1 1 2 3 3 2 1 1 0 1 1 1 1 1 1 2 1 1 1 2 3 4 4 3 3 3 3 4 4 4 4 5 5 4 4 4 3 3 3 2 1 1 1 1 1 1 1 1 1 2 2 2 3 3 3 3 3 3 3 2 2 2 2 2 2 2 2 3 3 3 4
2 2 2 2 2 2 2 3 3 3 3 3 3 3 2 2 2 2 2 2 1 0 0 1 1 1 1 1 1 1 1 1 1 1 2 2 2 3 2 2 2 2 2 2 2 3 4 4 3 3 4 3 3 2 2 1 1 1 1 1 1 1 1 1 2 2 2 2 2 2 2 2 3 3 2 2 2 2 2 2 3 3 3 3 3 3
4 3 3 3 3 3 3 3 4 4 3 2 2 2 2 2 2 2 3 2 1 0 1 2 2 1 1 1 1 1 1 1 1 1 1 1 2 2 2 2 2 2 2 2 1 2 3 2 2 2 3 2 2 1 1 1 1 2 1 1 1 1 1 1 2 2 2 2 2 2 2 2 2 2 2 2 2 2 2 2 3 3 3 3 3 3
4 4 4 4 4 3 3 3 3 3 2 2 2 2 3 2 2 2 3 3 2 2 2 2 2 1 2 1 1 1 1 1 2 2 1 1 2 2 2 2 2 2 2 1 1 1 2 2 1 1 2 2 2 2 2 2 2 2 2 1 1 1 1 1 2 2 2 2 2 3 2 2 2 2 2 2 2 2 2 2 2 3 3 3 3 4
3 4 4 4 4 3 2 2 2 2 2 2 2 2 2 3 3 3 3 3 3 2 2 3 2 1 1 1 1 1 1 1 2 2 2 0 1 2 2 2 1 1 2 1 1 1 2 2 2 2 2 3 3 3 2 2 2 2 2 1 1 1 1 2 2 2 2 2 2 3 2 2 2 2 2 2 2 2 2 2 2 2 3 3 3 4
3 3 3 3 3 3 2 2 2 2 2 2 2 2 2 2 2 2 3 3 3 3 2 3 2 2 2 1 1 1 1 1 2 3 2 0 1 2 2 1 1 1 1 2 2 1 1 1 2 2 3 3 3 3 2 2 2 2 2 2 2 2 2 1 1 2 2 2 2 2 2 2 1 1 1 1 1 1 1 1 2 2 3 3 3 4
3 3 3 3 3 3 2 2 3 3 3 3 3 3 2 1 1 2 2 2 3 3 3 2 2 2 2 2 1 1 1 1 2 3 1 0 1 2 2 2 1 1 1 2 1 1 1 2 3 4 5 4 4 3 2 2 2 2 2 2 2 2 1 1 1 1 1 2 2 2 1 1 1 1 1 1 1 1 2 2 2 2 2 3 3 3
3 3 3 3 3 3 3 3 3 4 5 5 4 4 3 2 2 2 2 2 2 2 2 2 2 2 2 2 1 1 1 1 2 3 2 0 1 2 2 2 2 1 1 2 2 1 1 2 3 4 5 4 4 3 3 2 2 2 2 2 2 1 1 1 1 0 1 1 1 1 0 0 0 1 1 1 2 2 2 2 2 2 2 3 3 3
4 4 3 3 4 4 4 4 4 4 5 5 5 4 3 3 3 2 2 2 2 2 2 2 2 2 2 2 1 1 1 1 2 3 2 0 1 2 2 1 1 1 1 2 2 2 2 2 2 3 4 4 3 3 3 3 3 3 3 2 2 2 2 2 1 1 0 1 1 0 0 0 0 0 1 1 1 2 2 3 3 3 2 3 3 3
4 4 4 4 4 4 4 4 5 5 6 6 6 5 4 4 4 3 2 2 3 3 2 2 1 1 1 1 1 0 1 0 2 3 2 0 2 2 1 1 1 1 1 2 2 2 2 2 2 3 4 4 4 3 3 3 3 3 3 2 2 2 3 2 2 2 1 1 1 1 1 1 1 0 0 1 1 2 2 3 3 3 3 3 3 3
4 4 4 4 3 3 3 4 5 5 5 5 5 4 4 4 4 4 4 3 3 3 3 2 2 1 1 1 1 1 1 1 1 2 3 1 1 2 1 1 1 1 1 2 2 2 3 2 2 2 3 4 4 4 4 4 4 4 3 3 3 3 3 3 2 2 2 2 1 1 1 1 0 0 1 1 1 2 2 3 4 4 4 4 3 3
3 3 4 3 2 2 3 4 4 4 3 3 3 3 3 3 3 3 3 3 3 3 3 3 2 2 2 1 1 1 1 1 1 2 3 2 2 2 1 1 1 1 1 2 2 2 3 2 2 2 3 4 5 4 4 4 4 4 4 3 3 3 3 3 3 2 2 2 1 1 1 1 0 1 1 1 1 2 2 3 3 4 4 4 4 4
3 3 3 3 3 4 4 5 6 5 4 4 4 4 5 5 6 5 4 4 4 3 3 3 3 2 1 2 2 1 1 1 1 1 2 2 1 1 1 1 1 0 2 2 2 2 2 2 2 2 3 4 5 5 5 5 5 4 4 4 4 3 3 2 2 2 2 2 2 1 1 1 1 1 1 1 1 2 2 2 3 3 4 4 5 5
5 5 5 6 7 8 9 10 10 9 8 7 5 5 5 6 6 5 4 3 3 3 4 3 2 1 1 1 1 1 1 1 0 1 2 2 1 1 1 1 1 1 2 2 2 1 1 2 2 3 3 3 5 5 5 4 4 4 4 4 3 3 2 1 1 1 1 1 1 2 2 2 2 1 1 1 2 2 2 2 3 3 4 4 4 5
10 10 10 10 11 11 12 13 13 13 12 10 9 8 6 5 5 4 3 2 2 3 4 3 1 0 1 1 1 1 1 0 0 0 1 2 1 0 1 1 1 1 2 2 2 1 1 1 2 2 3 3 4 5 5 3 0 2 4 4 3 3 2 2 1 1 1 0 0 1 1 2 2 2 2 1 1 2 2 2 3 3 3 3 3 3
13 12 12 12 12 13 13 13 13 13 13 13 12 11 7 5 5 4 3 3 3 3 3 3 2 1 0 1 1 1 1 1 1 1 1 2 1 0 1 0 0 0 1 1 2 1 1 1 1 2 3 3 3 4 6 6 5 4 4 4 4 3 3 3 2 2 2 2 1 1 0 1 1 1 1 1 2 2 2 3 3 3 3 2 1 1
12 12 11 12 12 12 12 12 12 13 13 13 12 9 6 4 4 4 4 3 3 3 3 2 2 2 1 1 1 2 2 1 1 2 2 2 1 0 1 0 0 0 0 1 1 2 2 1 1 1 2 3 3 3 4 6 6 5 5 4 4 4 4 4 3 3 3 3 3 2 2 2 1 1 2 2 2 3 3 3 3 3 1 1 1 1
9 9 9 9 9 9 8 7 8 10 12 12 10 7 4 3 3 4 4 4 3 3 3 2 2 2 2 1 1 1 2 2 1 2 2 2 1 1 0 0 1 1 0 1 2 2 2 2 2 1 1 2 3 3 3 4 4 4 5 4 4 5 5 5 5 4 4 4 4 4 4 3 3 3 3 3 3 4 4 4 3 1 2 2 1 1
5 6 6 6 6 6 5 5 4 5 7 8 7 6 4 4 4 4 4 4 3 3 3 3 2 2 2 2 1 0 1 2 2 2 3 2 2 1 1 1 1 1 0 1 2 1 1 2 2 2 1 2 2 2 2 2 3 3 3 3 3 4 5 5 5 5 5 5 5 4 4 4 4 5 5 5 5 5 5 5 4 2 1 1 1 1
4 5 4 4 4 4 4 4 4 4 5 5 5 4 4 4 4 4 4 3 3 3 3 3 3 2 2 2 2 2 2 2 2 3 3 2 2 1 1 2 1 1 1 1 2 2 1 1 2 2 2 2 2 2 2 2 2 2 2 2 2 2 4 5 5 5 5 5 5 5 5 5 5 5 5 6 6 6 6 7 6 4 1 1 1 1
4 4 3 4 4 4 4 4 4 4 4 3 3 3 3 3 4 4 3 3 3 3 4 4 3 2 2 2 2 2 2 2 3 4 4 3 2 1 1 2 2 1 1 1 1 2 2 1 1 2 2 2 2 2 2 1 1 1 1 1 1 1 3 3 4 3 3 4 4 4 5 5 5 6 6 6 6 6 7 7 7 6 4 2 2 2
4 4 4 4 4 4 3 4 4 3 3 3 3 3 3 3 3 3 3 3 3 3 4 4 4 3 3 2 1 1 2 2 3 5 5 3 2 2 2 2 2 1 1 1 1 1 1 1 0 1 2 2 2 2 1 1 1 1 0 0 0 1 2 2 2 2 2 2 2 3 3 4 5 5 5 5 5 6 6 6 7 7 6 3 3 3
4 4 4 3 3 3 3 3 3 3 3 2 2 2 2 2 2 2 2 2 2 2 3 3 3 4 4 3 2 1 2 2 4 5 5 3 2 2 2 2 2 2 2 2 1 1 1 0 0 0 1 2 3 2 1 1 1 1 0 0 1 1 1 1 1 1 2 2 2 2 2 2 3 3 4 5 5 5 5 6 6 7 6 5 4 3
3 3 3 3 3 2 2 2 2 2 2 2 1 1 1 1 1 1 1 1 1 2 2 2 2 2 3 3 3 3 2 3 4 5 5 3 3 3 2 2 2 2 3 2 2 1 1 1 0 1 1 1 2 2 2 2 1 1 1 0 1 1 1 1 0 0 1 1 1 1 1 1 1 2 3 4 5 5 5 5 6 6 6 6 5 4
3 2 2 2 2 2 2 1 1 1 1 1 1 0 1 1 2 2 2 2 2 2 2 2 2 1 2 2 3 3 2 3 3 4 5 4 3 3 2 2 2 3 3 3 2 2 2 1 1 1 1 1 1 2 3 3 3 2 2 1 1 1 1 1 0 1 0 1 1 2 1 1 1 2 3 4 5 5 5 5 5 5 5 5 5 5
2 2 1 1 1 1 1 0 0 0 1 1 1 1 1 2 2 2 2 2 2 2 2 2 2 2 2 2 2 2 2 3 3 4 5 4 3 3 3 2 2 2 2 3 3 3 3 2 1 0 1 1 2 2 2 2 2 2 2 2 2 1 1 0 0 1 1 1 1 2 2 1 1 1 2 3 3 3 4 4 4 4 5 5 5 6
2 2 1 1 1 1 1 1 1 1 1 2 2 2 2 2 2 2 2 2 2 2 2 2 2 2 2 2 2 2 3 3 3 3 4 4 3 3 3 3 2 2 2 2 3 3 3 2 2 1 1 1 2 2 1 1 1 2 2 3 2 2 1 0 0 1 1 1 1 2 1 1 1 1 1 2 2 2 2 2 2 2 3 3 4 5
2 2 2 2 2 2 2 1 1 1 2 2 2 3 2 2 2 2 2 2 2 2 2 2 2 2 1 2 2 2 2 2 2 2 3 3 3 3 3 3 3 3 2 2 2 2 3 3 2 2 2 2 1 1 1 1 1 1 1 2 2 2 2 1 1 1 1 1 1 1 1 1 1 1 1 1 0 0 1 1 1 1 1 1 1 2
2 2 2 1 1 1 1 1 2 2 2 2 2 2 2 2 2 2 2 2 2 2 2 2 2 2 2 2 2 2 2 1 1 2 2 3 3 3 3 3 3 3 3 2 1 2 2 3 2 2 2 2 2 2 2 2 2 2 2 2 2 3 3 2 1 1 1 0 1 1 1 1 2 2 1 1 2 2 2 2 2 2 1 1 1 1
3 2 2 1 1 1 1 2 2 2 2 2 2 2 2 2 2 2 2 2 1 1 1 1 1 2 2 2 2 2 2 1 0 1 2 2 2 2 2 2 3 3 3 2 2 1 2 2 2 3 3 2 2 2 3 2 2 2 2 2 2 3 4 3 1 1 1 0 1 1 2 2 2 1 2 2 2 2 2 2 3 3 3 2 2 2
3 2 2 2 2 2 2 2 2 2 2 2 2 1 1 1 2 2 3 2 1 1 1 1 2 2 2 2 2 2 2 2 1 1 1 1 2 2 2 2 2 3 3 3 2 1 1 2 2 3 3 2 2 2 3 3 2 2 2 2 1 1 2 2 2 1 0 1 1 1 2 2 2 2 2 2 2 2 2 3 4 5 4 3 2 3
2 2 2 2 2 2 2 2 2 2 2 2 2 1 1 1 1 2 2 2 2 2 1 1 2 2 2 1 2 3 3 2 2 1 0 2 3 3 2 2 2 2 3 3 3 2 1 1 2 3 3 2 2 3 3 3 2 2 2 3 3 2 2 2 2 1 1 1 1 2 2 2 1 1 1 2 2 2 2 2 2 3 3 3 3 3
3 2 2 2 2 2 2 2 2 2 2 2 2 1 1 1 1 2 2 2 2 2 1 1 2 2 1 0 1 2 3 3 2 1 1 1 3 4 3 3 2 2 3 3 4 3 3 2 2 2 1 2 2 3 3 3 3 3 3 3 4 4 4 3 2 1 1 2 2 2 2 1 1 0 1 2 2 2 2 2 2 3 3 2 3 3
3 3 2 2 2 2 3 3 2 2 2 2 2 2 2 1 1 2 2 2 2 2 1 1 2 2 1 1 1 1 2 2 2 2 2 2 1 1 2 3 3 3 3 3 3 3 3 3 3 2 1 1 2 3 4 4 4 3 3 3 3 3 3 3 3 3 3 3 2 2 1 1 1 0 1 2 2 2 2 2 3 3 3 3 3 3
3 3 3 2 2 2 2 3 2 2 2 2 2 2 2 2 2 2 2 2 2 2 2 2 2 2 2 2 1 1 0 1 1 2 2 2 2 1 1 0 2 3 2 2 2 2 3 3 3 3 2 2 3 4 4 4 4 4 3 3 3 3 3 3 3 3 3 3 2 2 2 2 1 1 1 1 2 2 3 2 3 3 3 3 3 3
4 3 3 3 3 3 2 3 2 2 2 2 2 2 2 2 3 3 2 2 2 3 3 2 2 2 2 2 2 2 2 1 1 1 2 1 1 1 1 1 0 1 2 2 3 3 3 3 3 3 3 3 4 4 4 4 4 4 3 3 3 3 3 3 3 2 2 3 2 2 3 2 2 2 1 1 2 2 3 3 3 3 3 3 3 3
4 4 3 3 3 3 3 3 3 3 3 2 2 2 2 2 3 3 2 2 2 3 3 3 3 2 2 2 2 2 2 2 1 1 1 1 1 1 1 1 1 1 1 1 2 3 3 4 5 6 6 6 5 5 4 4 3 3 3 3 3 3 3 3 2 2 2 2 2 2 2 2 2 2 1 2 2 3 3 3 3 3 3 3 3 3
3 3 4 4 3 3 3 3 3 3 3 3 3 2 2 2 1 1 2 2 3 3 3 3 3 3 3 2 2 2 2 2 1 1 1 1 0 0 1 1 1 1 1 0 1 1 2 3 4 7 9 10 9 7 5 4 3 2 2 3 3 3 3 3 2 2 2 2 2 2 2 1 1 1 1 2 2 3 3 3 3 3 3 2 2 3
4 4 4 4 4 4 4 4 4 4 4 4 3 3 3 2 2 1 1 2 2 3 3 3 3 3 3 3 3 3 3 3 2 2 2 1 1 1 1 2 2 2 1 1 1 1 1 1 2 3 6 11 12 11 6 4 3 2 3 3 2 2 2 2 2 2 2 2 2 2 2 2 1 1 2 2 2 3 2 3 3 3 3 2 2 2
Wind_Direction
113 130 137 143 142 141 149 147 141 136 130 124 116 107 96 85 74 64 60 60 63 67 69 57 44 42 57 84 97 104 109 109 110 110 109 108 108 107 107 108 109 109 107 103 99 94 90 85 81 77 73 69 66 63 60 57 55 52 49 47 46 45 43 41 39 37 35 34 34 33 34 32 26 19 10 5 2 1 1 358 356 356 1 2 356 348
112 122 136 143 140 135 135 141 139 137 135 131 126 119 111 102 91 76 62 54 52 54 59 51 42 37 36 47 82 104 110 111 112 112 114 114 114 114 114 116 118 117 115 110 105 99 93 88 82 77 72 68 64 60 57 54 52 50 47 46 44 43 42 40 37 35 32 29 27 25 23 20 15 8 2 357 354 353 352 351 349 349 352 351 345 336
132 133 144 146 142 136 130 133 128 124 125 125 123 119 115 108 100 89 79 63 52 47 47 39 37 37 35 22 61 106 114 115 116 117 119 119 119 120 121 125 126 126 123 117 110 103 96 90 83 77 72 67 62 58 55 52 51 49 48 47 45 44 42 39 36 32 28 25 21 16 12 8 3 357 353 350 348 347 347 347 346 346 347 342 334 325
142 144 150 145 136 128 123 127 119 108 102 103 102 101 101 100 96 90 86 82 71 55 40 29 30 34 36 13 25 89 118 119 120 121 123 123 124 125 128 132 133 132 129 121 113 106 97 90 82 75 69 63 59 55 52 51 50 51 51 51 49 46 43 39 34 30 25 19 14 8 2 357 352 349 346 344 343 343 343 343 343 342 340 335 327 320
147 146 148 139 124 109 103 114 113 107 98 93 88 85 85 87 88 85 80 83 80 69 47 30 28 33 36 11 15 62 108 115 118 120 123 125 128 131 135 137 137 135 129 121 113 105 97 88 79 71 64 58 54 51 49 49 50 52 55 55 53 49 45 39 33 27 21 15 8 1 355 349 345 342 340 339 338 337 337 336 336 335 333 329 324 320
143 138 135 123 112 102 100 116 120 116 104 92 84 79 79 78 77 74 70 74 77 75 63 44 38 37 34 20 30 52 81 95 101 104 112 118 126 131 136 135 134 130 124 118 110 103 94 85 75 66 58 53 50 48 46 47 49 53 56 57 55 51 45 38 30 24 17 10 3 356 349 344 340 337 335 333 332 330 330 329 328 327 325 324 323 322
130 118 111 96 88 86 94 117 127 127 118 108 94 85 79 75 70 66 64 67 73 78 80 65 52 43 36 26 31 42 59 70 74 77 83 96 107 116 122 122 122 119 117 112 107 100 91 81 72 64 57 53 50 49 47 47 49 52 56 56 54 49 41 33 26 19 12 5 359 353 347 341 337 333 331 329 327 326 324 322 321 320 319 320 320 320
135 124 112 104 101 99 94 97 99 106 113 122 119 111 97 82 72 68 65 60 57 56 67 62 51 41 33 23 24 31 46 58 61 61 64 70 78 87 96 100 103 105 107 106 102 97 89 81 74 68 63 59 55 51 49 48 48 50 53 53 49 43 34 25 18 12 5 360 355 350 346 342 337 333 329 327 325 324 322 319 317 316 315 316 317 318
144 143 136 136 138 139 135 117 55 37 61 116 125 128 126 115 99 81 68 53 41 31 31 51 52 42 25 17 16 21 33 58 67 66 63 62 64 68 74 76 80 85 90 89 87 85 82 80 77 74 70 64 58 53 50 47 46 46 47 46 41 33 23 16 10 4 358 354 350 348 347 344 341 336 332 329 326 323 321 318 316 315 314 315 316 316
144 146 144 136 132 133 136 132 102 32 18 82 102 113 125 128 126 117 98 63 31 16 21 43 53 47 17 10 11 15 21 46 62 67 63 58 61 65 63 59 59 60 62 60 58 57 60 66 74 76 71 64 57 52 47 42 38 36 34 31 26 19 12 6 2 357 353 350 348 347 348 347 346 342 337 332 327 325 322 320 318 317 316 315 314 314
143 144 137 123 95 74 93 107 107 97 85 87 81 75 78 106 128 138 145 141 95 21 20 28 37 41 21 4 3 4 10 28 41 45 45 45 49 52 50 48 46 46 46 45 43 42 43 48 60 69 68 59 51 45 40 32 23 12 1 359 0 1 0 358 356 353 350 348 347 347 348 349 348 346 342 338 334 330 329 327 325 323 320 317 315 313
146 145 137 132 123 104 86 83 84 94 116 112 108 103 88 77 117 139 153 157 155 137 57 21 25 36 50 13 355 353 1 19 24 21 22 28 29 29 30 32 32 32 32 34 34 35 35 37 46 59 64 57 46 37 34 21 359 333 311 313 325 340 347 352 352 351 348 347 345 345 346 346 347 346 345 348 351 352 350 347 342 336 329 322 316 313
136 135 134 139 141 138 125 122 122 132 154 159 162 165 170 160 127 117 128 138 142 143 147 80 40 31 38 38 15 355 357 18 22 20 23 23 17 11 5 8 11 12 13 22 25 27 28 30 36 45 55 51 42 32 23 0 326 298 279 275 285 309 335 346 349 349 347 345 342 340 340 340 341 343 349 359 12 20 19 14 6 355 344 332 322 316
135 134 139 150 156 157 154 155 160 166 176 173 165 154 145 133 118 106 102 104 107 143 143 84 61 27 3 23 20 7 345 33 45 42 37 30 17 5 351 352 355 359 8 16 16 13 14 18 21 26 35 34 31 22 1 333 299 272 253 248 253 280 326 341 343 342 340 337 333 330 329 330 334 339 347 3 17 26 27 23 15 6 356 342 331 322
155 157 164 172 173 171 172 175 176 175 166 147 122 104 93 98 106 112 112 122 137 180 67 72 56 26 350 3 7 354 321 63 78 73 54 25 9 3 355 353 353 0 16 21 2 346 358 9 4 354 357 357 346 321 294 268 254 247 240 239 247 279 314 327 328 327 326 325 322 319 316 320 326 335 344 357 10 19 21 17 10 3 355 343 335 329
166 170 175 178 178 176 175 177 172 162 136 118 112 118 123 130 130 125 121 134 140 132 107 100 83 33 331 334 5 15 347 68 95 102 98 18 355 359 5 10 7 0 359 2 334 319 336 347 343 330 322 310 299 286 269 245 238 238 237 238 247 269 287 297 303 307 312 314 313 310 309 313 320 329 338 346 354 2 7 5 0 353 345 338 333 331
172 178 180 177 176 173 163 150 135 127 123 120 116 117 126 136 133 126 122 129 128 125 125 127 130 139 274 297 324 2 14 80 99 103 104 48 340 349 3 24 21 351 330 321 309 310 329 333 330 317 298 292 289 282 268 252 245 241 235 233 236 244 255 268 279 290 299 304 304 302 299 303 311 319 328 332 337 342 347 349 345 339 333 328 327 328
176 180 178 174 170 164 154 138 122 115 123 125 117 102 86 97 108 115 121 127 130 133 134 134 143 156 173 234 269 296 351 93 100 98 87 352 314 332 355 23 38 357 312 302 300 307 325 318 311 304 299 298 296 288 272 261 254 250 243 235 229 230 233 247 264 281 293 295 294 291 288 291 299 311 319 324 325 325 327 328 326 322 319 316 316 319
180 179 174 168 160 153 153 157 155 151 149 149 142 129 108 102 101 106 113 123 131 136 138 143 155 167 169 196 232 269 296 106 100 96 93 276 300 325 350 5 21 11 310 291 293 304 314 305 306 308 309 308 302 293 282 275 269 265 255 241 228 217 212 220 245 275 287 285 282 279 277 282 300 323 333 334 331 325 320 314 309 307 308 307 308 310
179 182 179 161 148 147 163 177 174 167 162 156 147 137 134 135 124 112 109 112 117 125 131 142 160 177 186 202 236 281 300 76 88 93 105 252 292 317 349 6 16 6 314 292 290 299 315 308 308 309 310 307 301 293 286 284 280 274 263 243 219 193 173 168 180 241 274 274 273 269 261 298 346 353 351 345 339 331 319 314 310 308 308 308 307 305
180 194 198 168 155 156 175 183 179 168 158 145 136 131 135 135 133 130 129 120 117 118 121 138 159 179 181 178 196 279 317 80 97 100 104 338 307 315 347 13 26 15 314 297 296 305 321 315 311 310 311 308 303 296 290 288 282 275 261 236 197 166 152 150 154 168 211 245 245 216 149 139 106 355 338 331 323 315 308 306 304 305 309 310 308 304
179 192 193 178 169 165 168 164 163 161 154 147 145 147 150 150 154 158 158 142 137 136 134 140 150 158 150 139 134 323 319 70 117 119 110 20 309 306 331 7 35 30 299 293 299 312 324 321 316 313 317 317 311 301 292 284 278 269 251 218 181 161 154 153 157 164 173 184 189 178 148 150 163 196 264 283 286 288 289 291 294 297 302 305 305 303
169 173 170 176 174 159 143 141 145 150 150 147 149 153 157 156 159 160 163 153 143 133 123 114 105 95 85 87 67 20 345 9 94 112 111 147 267 285 319 345 19 16 275 290 304 319 325 324 319 317 320 321 314 302 288 277 268 255 235 200 175 164 163 165 169 173 176 179 179 171 153 154 173 210 246 259 265 269 271 278 286 291 296 297 296 295
143 146 149 159 156 136 120 127 130 130 119 108 103 101 98 103 108 114 118 118 117 115 115 108 93 68 44 52 49 35 15 17 53 92 113 160 218 257 318 353 10 341 282 291 308 322 326 323 318 316 321 324 319 307 290 272 258 243 217 191 176 170 171 174 177 180 182 182 181 177 171 177 205 238 256 260 262 264 267 274 282 289 294 294 292 290
116 122 131 139 141 137 129 131 132 129 119 109 102 97 92 90 89 89 87 90 96 103 104 91 77 54 14 18 16 8 356 5 44 91 118 154 208 263 322 358 13 308 280 297 316 332 336 328 323 322 328 333 329 320 297 271 249 227 201 182 171 167 170 173 179 183 186 187 188 189 191 197 209 225 243 252 259 263 266 273 280 284 288 289 289 287
112 119 127 134 136 135 133 133 133 133 129 124 120 116 112 106 101 94 87 87 95 99 94 84 73 39 337 347 340 326 316 333 32 97 124 134 155 281 319 358 2 317 293 306 322 344 347 337 329 327 331 333 331 324 306 274 239 206 180 166 156 148 142 141 147 164 185 195 198 200 200 202 208 218 230 242 254 263 269 274 276 278 280 281 282 283
111 118 125 129 131 131 130 131 132 132 130 129 130 130 126 118 110 105 106 116 114 107 102 102 100 51 338 336 305 286 291 311 328 140 136 119 117 109 307 350 358 334 310 312 316 327 338 338 330 324 323 324 328 331 332 329 314 150 144 135 126 116 102 89 72 55 45 25 214 210 205 206 212 219 229 245 260 273 282 284 284 283 281 279 281 288
103 109 117 122 124 125 127 129 131 131 131 132 134 134 130 121 118 127 154 158 132 107 104 116 128 141 163 238 263 273 284 272 241 203 158 110 109 150 264 316 9 3 324 316 316 323 342 337 322 313 311 315 325 338 353 7 25 54 86 96 98 92 82 72 60 46 33 23 15 2 309 238 235 238 248 264 279 289 294 296 297 296 296 305 0 35
82 87 97 103 109 115 121 124 129 132 134 135 135 134 125 118 127 143 166 154 126 105 106 121 133 142 156 221 284 298 296 262 222 191 153 113 114 177 231 337 44 41 31 0 353 352 352 332 313 302 307 321 333 344 349 4 14 24 35 60 71 72 69 62 53 42 31 22 14 6 358 342 321 304 297 297 298 298 299 300 303 311 344 36 65 72
58 62 65 69 76 86 95 105 119 129 133 131 127 120 102 104 118 135 147 137 122 113 118 123 128 132 135 94 14 342 307 276 227 181 146 129 137 182 183 82 43 17 47 66 45 16 345 325 312 303 311 330 338 342 341 354 360 3 6 30 49 58 61 56 49 39 29 19 10 2 352 342 332 323 313 308 303 299 297 296 300 322 75 92 103 120
60 61 56 50 51 53 56 57 73 97 112 108 101 94 86 93 106 121 133 131 125 122 126 131 137 140 140 118 108 107 277 264 226 177 143 134 144 164 146 119 83 17 343 93 95 80 335 312 308 316 337 341 339 337 337 349 355 356 352 7 30 47 54 50 44 36 28 17 6 356 347 339 331 322 313 306 300 295 291 290 288 285 121 135 139 153
75 74 71 62 56 53 53 52 53 58 67 70 71 74 82 95 110 124 135 134 130 125 125 131 138 144 147 142 153 176 225 238 209 177 145 129 126 134 128 119 105 56 336 79 116 134 155 253 289 311 334 333 330 328 330 341 357 3 357 7 19 34 41 39 37 32 26 16 6 357 349 342 333 324 314 305 297 291 287 285 281 273 232 184 178 199
83 79 74 69 66 63 60 58 57 58 60 57 58 63 74 95 115 129 137 136 132 127 126 130 134 135 134 138 160 194 233 238 204 179 155 128 113 115 113 108 104 87 21 36 81 117 139 183 259 302 317 314 312 314 317 328 354 12 11 13 1 359 11 20 23 22 17 10 4 358 355 349 342 333 322 310 300 292 285 281 276 268 250 211 192 198
82 77 71 69 69 68 66 63 62 63 63 59 58 62 70 89 112 128 135 133 131 133 134 139 141 142 139 135 168 244 263 248 205 183 163 132 118 124 126 121 120 119 99 64 57 66 96 131 260 303 309 307 306 306 306 314 330 358 31 14 313 314 330 354 1 1 355 358 356 352 353 352 349 344 334 322 309 296 286 280 275 269 261 232 202 191
78 71 64 63 65 68 67 66 69 72 71 62 55 55 68 85 105 122 129 125 124 126 132 141 145 148 148 148 161 206 252 236 201 184 169 146 129 128 130 149 150 140 124 117 105 92 91 76 62 344 331 319 314 308 301 291 290 290 255 217 231 265 287 322 341 346 345 348 341 333 335 342 346 344 337 328 318 307 297 290 283 277 272 255 233 206
82 74 61 57 62 67 65 63 70 80 89 79 56 37 49 73 89 101 104 98 99 100 102 112 127 140 148 151 160 175 205 206 193 182 171 153 137 132 138 167 165 149 130 128 127 125 125 106 64 38 36 335 310 304 303 307 313 318 308 277 255 252 250 232 220 18 359 338 321 311 312 321 326 327 326 331 329 325 319 312 304 296 288 276 264 243
94 88 67 56 64 73 74 56 58 80 107 114 106 56 43 58 66 68 65 59 65 77 84 82 83 93 116 135 147 158 174 178 179 176 168 151 138 134 139 161 166 158 143 142 142 138 126 107 57 22 32 242 259 279 299 322 337 343 331 319 302 283 269 227 152 118 114 273 275 280 284 293 310 319 321 332 338 340 336 331 326 321 314 305 293 280
112 113 101 72 74 91 105 117 180 180 137 134 131 114 73 63 59 56 52 48 53 60 72 75 72 69 69 83 101 121 134 142 157 166 161 150 139 131 130 140 158 168 160 150 145 139 128 120 105 344 283 252 253 264 290 324 335 330 315 310 302 294 281 263 140 129 159 238 260 268 268 288 336 337 326 337 346 351 346 342 342 344 343 333 318 302
134 144 162 174 173 167 164 180 189 177 132 123 119 113 99 84 72 63 56 55 53 53 54 64 66 63 52 57 79 102 113 125 143 154 153 150 144 136 130 136 151 165 157 139 134 133 133 142 157 179 214 250 266 276 291 298 293 292 303 318 320 315 295 263 176 163 180 224 263 277 287 329 353 342 321 339 356 1 347 335 337 351 6 358 338 320
152 164 184 188 186 182 181 173 154 132 116 110 110 109 108 99 86 76 71 69 65 59 51 51 55 56 46 41 49 68 90 112 131 142 147 157 156 149 140 145 149 151 140 128 126 133 140 152 166 178 183 199 230 256 275 265 251 255 308 327 320 309 299 269 214 194 175 189 231 266 285 301 303 288 273 277 284 296 285 286 297 325 11 36 12 335
161 172 195 193 181 169 155 117 108 111 116 113 110 109 116 112 104 94 84 71 60 50 46 52 53 47 30 34 38 47 61 100 138 148 151 168 170 165 154 152 147 141 138 137 139 148 155 163 175 187 192 198 216 238 250 247 246 252 276 281 279 277 280 275 256 133 118 162 209 224 240 259 261 257 248 247 235 224 217 222 243 260 263 166 154 159
170 176 186 176 160 143 129 111 109 112 115 113 116 124 137 133 128 123 115 94 66 36 25 52 62 53 25 6 7 20 44 47 175 189 163 169 174 177 170 159 149 139 133 131 139 169 188 183 189 196 201 200 215 239 254 253 252 252 255 258 277 294 300 294 306 45 81 260 247 236 232 237 241 246 252 264 259 248 232 222 231 240 240 201 177 175
174 168 155 143 137 132 127 118 115 115 115 113 120 136 148 140 133 127 120 114 106 80 46 57 73 78 59 353 335 336 350 348 328 279 177 167 176 188 188 167 150 140 135 130 137 179 221 214 211 208 203 190 199 226 252 260 259 249 239 233 245 302 311 298 302 314 283 249 234 223 218 222 229 241 257 267 267 264 254 246 249 250 246 217 196 196
150 131 116 115 115 113 112 115 124 133 136 139 143 147 140 122 113 111 107 108 105 95 71 67 73 77 73 23 326 319 324 332 340 345 200 192 189 188 193 174 153 145 144 145 149 157 169 215 226 222 206 189 198 221 244 252 252 245 235 216 202 199 218 250 271 292 308 273 248 230 216 215 223 253 278 273 271 266 263 249 252 255 250 220 201 201
125 118 116 122 126 130 134 143 146 146 147 150 147 142 131 125 111 105 107 108 103 95 87 92 87 81 67 346 308 311 319 327 336 352 9 187 187 186 181 177 173 169 167 170 168 165 163 191 213 220 201 184 199 218 237 245 250 248 241 224 216 216 222 229 231 231 250 263 258 241 210 180 159 288 295 283 275 268 259 251 252 253 249 224 208 206
121 124 130 135 144 152 159 155 149 144 145 145 141 134 129 124 116 109 111 113 113 112 119 108 110 116 150 219 267 307 325 328 332 341 353 4 9 174 179 183 184 186 189 193 189 182 177 180 182 176 153 176 210 224 230 233 241 248 249 236 230 233 240 242 236 229 230 242 246 234 170 133 129 168 256 273 278 277 267 251 246 246 246 228 216 213
137 141 146 148 152 157 157 150 146 146 153 155 150 140 133 128 122 114 108 114 119 123 121 107 116 136 167 183 184 177 176 290 305 316 326 348 9 25 33 194 198 197 197 208 216 218 215 199 182 168 163 195 230 238 233 225 227 234 241 235 233 234 243 244 237 226 216 226 226 205 145 135 146 201 237 262 278 283 279 264 250 242 239 232 224 220
156 156 157 155 155 154 155 154 156 159 166 163 153 143 142 149 149 143 124 130 131 129 125 122 135 157 180 188 184 176 169 183 222 272 296 309 337 11 29 30 121 192 203 218 230 236 239 228 213 202 199 213 232 243 240 225 221 222 226 224 225 233 244 245 237 219 204 216 208 183 155 166 191 216 237 267 282 284 285 281 269 254 241 235 230 227
164 164 162 160 160 163 167 168 169 171 176 167 152 141 144 166 168 163 146 146 143 141 142 150 161 175 193 205 201 190 178 178 191 225 262 278 307 0 36 51 86 126 161 216 233 239 241 235 227 221 217 218 226 238 246 233 224 217 214 216 222 230 241 245 237 216 199 205 196 180 167 184 197 204 212 256 274 280 285 288 282 270 252 239 231 229
172 170 168 167 171 176 178 175 176 179 182 172 159 148 143 162 171 162 140 144 150 157 163 169 174 182 195 202 199 191 185 181 189 213 240 244 240 99 84 81 92 99 91 1 265 259 258 251 238 229 221 218 219 224 237 237 232 221 219 224 225 228 237 244 239 221 200 197 183 171 168 183 190 188 188 239 263 274 281 285 285 280 271 258 244 237
178 178 176 176 180 183 182 178 180 182 183 176 165 154 144 149 154 154 140 151 163 172 179 178 180 187 198 202 199 193 188 182 187 205 222 214 184 149 134 122 110 101 83 45 350 323 315 313 292 259 233 219 215 214 222 224 225 227 233 232 225 221 228 237 239 233 214 194 172 160 162 171 178 181 183 219 255 272 276 277 278 279 279 278 272 262